Torna al catalogo

COSMOS 1275 DEB

AttivoPO
NORAD 14406·DEBRIS·🇷🇺 Russia

Lanciato Jun 4, 1981 da Plesetsk Cosmodrome

Loading…

Prossimi Passaggi (prossime 24 ore)

TLE

AggiornatoSource: Space-Track

Epoca: Sep 14, 2026, 03:35 UTC

1 14406U 81053JB  26257.14946678  .00001721  00000-0  76545-3 0  9990
2 14406  82.8373 312.4014 0016407 297.5170  91.7172 14.22379565234462

Traccia COSMOS 1275 DEB in tempo reale con AllMySat

Download on the App Store